Home   Weather   Gdańsk   Past weeks

Flag for Poland Past Weather in Gdańsk, Poland — Yesterday and Last 2 Weeks

46 °F

Scattered clouds.

Feels Like: 41 °F
Forecast: 42 / 48 °F
Wind: 12 mph from Northwest

Location: Gdansk-Rebiechowo

Current Time: Oct 25, 2016 at 5:39:54 PM

Latest Report: Oct 25, 2016 at 5:00 PM

Visibility: N/A

Pressure: 30.09 "Hg

Humidity: 100%

Dew Point: 46 °F

Location of GdańskLocation

Past Weather in Gdańsk — Graph


Gdańsk Temperature Yesterday

Maximum temperature yesterday: 45 °F (at 8:00 AM)
Minimum temperature yesterday: 43 °F (at 12:00 AM)
Average temperature yesterday: 43 °F

High & Low Weather Summary for the Past Weeks

High48 °F (Oct 10, 4:00 PM)100% (Oct 10, 4:00 PM)30.48 "Hg (Oct 10, 4:00 PM)
Low32 °F (Oct 14, 7:00 AM)62% (Oct 14, 2:00 PM)29.92 "Hg (Oct 22, 4:30 AM)
Average42 °F91%30.18 "Hg
* Reported Oct 10 4:00 PM — Oct 25 4:30 PM, Gdańsk, Weather by CustomWeather, © 2016

Note: Actual official high and low records may vary slightly from our data, if they occured in-between our weather recording intervals... More about our weather records


Gdańsk Weather History for the Previous 24 Hours

Scroll right to see more
Time TempWeatherWind HumidityBarometerVisibility
4:30 PM
Tue, Oct 25
46 °FScattered clouds.13 mph100%30.09 "HgN/A
4:00 PM46 °FScattered clouds.10 mph100%30.07 "HgN/A
3:30 PM46 °FScattered clouds.10 mph100%30.07 "Hg6 mi
3:00 PM46 °FDrizzle. Partly sunny.10 mph100%30.07 "Hg4 mi
2:30 PM46 °FPartly sunny.9 mph100%30.07 "Hg4 mi
2:00 PM46 °FMostly cloudy.8 mph100%30.04 "Hg4 mi
1:30 PM46 °FFog.9 mph100%30.07 "Hg2 mi
1:00 PM46 °FMostly cloudy.9 mph100%30.04 "Hg5 mi
12:30 PM46 °FLight rain. Fog.8 mph100%30.04 "Hg3 mi
12:00 PM46 °FLight rain. Fog.6 mph100%30.04 "Hg2 mi
11:30 AM46 °FLight rain. Fog.6 mph100%30.04 "Hg2 mi
11:00 AM45 °FLight rain. Fog.7 mph100%30.04 "Hg1 mi
10:30 AM45 °FFog.6 mph100%30.04 "Hg2 mi
10:00 AM45 °FFog.6 mph100%30.04 "Hg2 mi
9:30 AM45 °FFog.5 mph100%30.01 "Hg1 mi
9:00 AM45 °FFog.5 mph100%30.01 "Hg1 mi
8:30 AM45 °FFog.2 mph100%30.01 "Hg1 mi
8:00 AM45 °FFog.2 mph100%30.01 "Hg1 mi
7:30 AM45 °FFog.3 mph100%30.01 "Hg0 mi
7:00 AM45 °FFog.3 mph100%30.01 "Hg0 mi
6:30 AM45 °FFog.2 mph100%30.01 "Hg0 mi
6:00 AM45 °FFog.2 mph100%30.01 "Hg0 mi
5:30 AM45 °FFog.5 mph100%30.01 "Hg0 mi
5:00 AM45 °FFog.5 mph100%30.01 "Hg0 mi
4:30 AM45 °FFog.2 mph100%30.04 "Hg0 mi
4:00 AM45 °FFog.2 mph100%30.04 "Hg0 mi
3:30 AM45 °FFog.2 mph100%30.04 "Hg0 mi
3:00 AM45 °FFog.5 mph100%30.04 "Hg0 mi
2:30 AM45 °FFog.5 mph100%30.04 "Hg0 mi
2:00 AM45 °FFog.6 mph100%30.04 "Hg0 mi
1:00 AM45 °FFog.7 mph100%30.07 "Hg0 mi
12:30 AM45 °FFog.7 mph100%30.07 "Hg0 mi
12:00 AM45 °FFog.7 mph100%30.07 "Hg0 mi
11:30 PM
Mon, Oct 24
45 °FFog.6 mph100%30.07 "Hg0 mi
11:00 PM45 °FFog.7 mph100%30.07 "Hg0 mi
10:30 PM45 °FFog.7 mph100%30.09 "Hg0 mi
10:00 PM45 °FFog.8 mph100%30.09 "Hg0 mi
9:30 PM45 °FFog.7 mph100%30.09 "Hg0 mi
9:00 PM45 °FSleet. Overcast.7 mph100%30.09 "Hg0 mi
8:30 PM45 °FSleet. Overcast.9 mph93%30.09 "Hg0 mi
8:00 PM45 °FDense fog.9 mph93%30.09 "Hg1 mi
7:30 PM45 °FFog.9 mph93%30.09 "Hg1 mi
7:00 PM45 °FFog.9 mph93%30.09 "Hg1 mi
6:30 PM45 °FQuite cool.9 mph93%30.09 "Hg1 mi
6:00 PM45 °FDense fog.7 mph93%30.09 "Hg1 mi
5:30 PM45 °FFog.10 mph93%30.09 "Hg1 mi
5:00 PM45 °FFog.10 mph93%30.09 "Hg1 mi
Weather by CustomWeather, © 2016

See weather overviewHow to use our weather pages